QPF
0.00 0.00 0.00 0.00 0.00 0.00 0.00 0.00 0.00 0.00 0.00 0.00 0.00 0.00 0.00 0.00 0.00 0.00 0.00 0.00 0.00 0.00 0.00 0.00 0.00 0.00 0.00 0.00 0.00 0.00 0.00 0.00 0.00 0.00 0.00 0.00 0.00 0.00 0.00 0.00 0.00 0.00 0.00
0.00 0.00 0.00 0.00 0.00 0.00 0.00 0.00 0.00 0.00 0.00 0.00 0.00 0.00 0.00 0.00 0.00 0.00 0.00 0.01 0.01 0.00 0.00 0.00 0.00 0.00 0.00 0.00 0.00 0.00 0.00 0.00 0.00 0.00 0.00 0.00 0.00 0.00 0.00 0.00 0.00 0.00 0.00
0.00 0.00 0.00 0.00 0.00 0.00 0.00 0.00 0.00 0.00 0.00 0.00 0.00 0.00 0.00 0.00 0.00 0.00 0.01 0.01 0.01 0.02 0.02 0.02 0.01 0.00 0.00 0.00 0.00 0.00 0.00 0.00 0.00 0.00 0.00 0.00 0.00 0.00 0.00 0.00 0.00 0.00 0.00
0.00 0.00 0.00 0.00 0.00 0.00 0.00 0.00 0.00 0.00 0.00 0.00 0.00 0.00 0.00 0.00 0.00 0.03 0.03 0.02 0.01 0.01 0.01 0.01 0.02 0.01 0.01 0.01 0.01 0.00 0.00 0.00 0.00 0.00 0.00 0.00 0.00 0.00 0.00 0.00 0.01 0.00 0.00
0.00 0.00 0.00 0.00 0.00 0.00 0.00 0.00 0.00 0.00 0.00 0.00 0.00 0.01 0.03 0.04 0.06 0.09 0.07 0.04 0.03 0.02 0.02 0.02 0.01 0.01 0.00 0.01 0.00 0.00 0.00 0.00 0.00 0.00 0.00 0.00 0.00 0.00 0.00 0.00 0.01 0.00 0.00
0.00 0.00 0.00 0.00 0.00 0.00 0.00 0.00 0.00 0.00 0.00 0.01 0.06 0.08 0.07 0.08 0.11 0.11 0.11 0.09 0.06 0.03 0.02 0.02 0.02 0.01 0.01 0.01 0.00 0.00 0.00 0.00 0.00 0.00 0.00 0.00 0.00 0.00 0.00 0.01 0.01 0.00 0.00
0.00 0.00 0.00 0.00 0.00 0.00 0.00 0.00 0.00 0.00 0.00 0.00 0.01 0.03 0.07 0.08 0.10 0.12 0.12 0.07 0.04 0.03 0.03 0.03 0.02 0.01 0.01 0.01 0.00 0.00 0.00 0.00 0.00 0.01 0.01 0.01 0.00 0.00 0.01 0.01 0.00 0.00 0.00
0.00 0.00 0.00 0.00 0.00 0.00 0.00 0.00 0.00 0.00 0.00 0.00 0.00 0.00 0.00 0.00 0.00 0.01 0.01 0.01 0.01 0.01 0.01 0.02 0.02 0.01 0.00 0.00 0.00 0.00 0.00 0.00 0.00 0.00 0.01 0.01 0.01 0.01 0.01 0.00 0.00 0.00 0.00
0.00 0.00 0.00 0.00 0.00 0.00 0.00 0.00 0.00 0.00 0.00 0.00 0.00 0.00 0.00 0.00 0.00 0.00 0.00 0.00 0.00 0.00 0.00 0.00 0.00 0.00 0.00 0.00 0.00 0.00 0.00 0.00 0.00 0.00 0.00 0.00 0.00 0.00 0.00 0.00 0.00 0.00 0.00
0.00 0.00 0.00 0.00 0.00 0.00 0.00 0.00 0.00 0.00 0.00 0.00 0.00 0.00 0.00 0.00 0.00 0.00 0.00 0.00 0.00 0.00 0.00 0.00 0.00 0.00 0.00 0.00 0.00 0.00 0.00 0.00 0.00 0.00 0.00 0.00 0.00 0.00 0.00 0.00 0.00 0.00 0.00
0.00 0.00 0.00 0.00 0.00 0.00 0.00 0.00 0.00 0.00 0.00 0.00 0.00 0.00 0.00 0.00 0.00 0.00 0.00 0.00 0.00 0.00 0.00 0.00 0.00 0.00 0.00 0.00 0.00 0.00 0.00 0.00 0.00 0.00 0.00 0.00 0.00 0.00 0.00 0.00 0.00 0.00 0.00
0.00 0.00 0.00 0.00 0.00 0.00 0.00 0.00 0.00 0.00 0.00 0.00 0.00 0.00 0.00 0.00 0.00 0.00 0.00 0.00 0.00 0.00 0.00 0.00 0.00 0.00 0.00 0.00 0.00 0.00 0.00 0.00 0.00 0.00 0.00 0.00 0.00 0.00 0.00 0.00 0.00 0.00 0.00
0.00 0.00 0.00 0.00 0.00 0.00 0.00 0.00 0.00 0.00 0.00 0.00 0.00 0.00 0.00 0.00 0.00 0.00 0.00 0.00 0.00 0.00 0.00 0.00 0.00 0.00 0.00 0.00 0.00 0.00 0.00 0.00 0.00 0.00 0.00 0.00 0.00 0.00 0.00 0.00 0.00 0.00 0.00
0.00 0.00 0.00 0.00 0.00 0.00 0.00 0.00 0.00 0.00 0.00 0.00 0.00 0.00 0.00 0.00 0.00 0.00 0.00 0.00 0.00 0.00 0.00 0.00 0.00 0.00 0.00 0.00 0.00 0.00 0.00 0.00 0.00 0.00 0.00 0.00 0.00 0.00 0.00 0.00 0.00 0.00 0.00
0.00 0.00 0.00 0.00 0.00 0.00 0.00 0.00 0.00 0.00 0.00 0.00 0.00 0.00 0.00 0.00 0.00 0.00 0.00 0.00 0.00 0.00 0.00 0.00 0.00 0.00 0.00 0.00 0.00 0.00 0.00 0.00 0.00 0.00 0.00 0.00 0.00 0.00 0.00 0.00 0.00 0.00 0.00
0.00 0.00 0.00 0.00 0.00 0.00 0.00 0.00 0.00 0.00 0.00 0.00 0.00 0.00 0.00 0.00 0.00 0.00 0.00 0.00 0.00 0.00 0.00 0.00 0.00 0.00 0.00 0.00 0.00 0.00 0.00 0.00 0.00 0.00 0.00 0.00 0.00 0.00 0.00 0.00 0.00 0.00 0.00
0.00 0.00 0.00 0.00 0.00 0.00 0.00 0.00 0.00 0.00 0.00 0.00 0.00 0.00 0.00 0.00 0.00 0.00 0.00 0.00 0.00 0.00 0.00 0.00 0.00 0.00 0.00 0.00 0.00 0.00 0.00 0.00 0.00 0.00 0.00 0.00 0.00 0.00 0.00 0.00 0.00 0.00 0.00
0.00 0.00 0.00 0.00 0.00 0.00 0.00 0.00 0.01 0.00 0.00 0.00 0.00 0.00 0.00 0.00 0.00 0.00 0.00 0.00 0.00 0.00 0.00 0.00 0.00 0.00 0.00 0.00 0.00 0.00 0.00 0.00 0.00 0.00 0.00 0.00 0.00 0.00 0.00 0.00 0.00 0.00 0.00
0.00 0.00 0.00 0.00 0.00 0.00 0.00 0.00 0.00 0.00 0.00 0.00 0.00 0.00 0.00 0.00 0.00 0.00 0.00 0.00 0.00 0.00 0.00 0.00 0.00 0.00 0.00 0.00 0.00 0.00 0.00 0.00 0.00 0.00 0.00 0.00 0.00 0.00 0.00 0.00 0.00 0.00 0.00
0.00 0.00 0.00 0.00 0.00 0.00 0.00 0.00 0.00 0.00 0.00 0.00 0.00 0.00 0.00 0.00 0.00 0.00 0.00 0.00 0.00 0.00 0.00 0.00 0.00 0.00 0.00 0.00 0.00 0.00 0.00 0.00 0.00 0.00 0.00 0.00 0.00 0.00 0.00 0.00 0.00 0.00 0.00
0.00 0.00 0.00 0.00 0.00 0.00 0.00 0.00 0.00 0.00 0.00 0.00 0.00 0.00 0.00 0.00 0.00 0.00 0.00 0.00 0.00 0.00 0.00 0.00 0.00 0.00 0.00 0.00 0.00 0.00 0.00 0.00 0.00 0.00 0.00 0.00 0.00 0.00 0.00 0.00 0.00 0.00 0.01
0.00 0.00 0.00 0.00 0.00 0.00 0.00 0.00 0.01 0.01 0.01 0.01 0.00 0.00 0.00 0.00 0.00 0.00 0.00 0.00 0.00 0.00 0.00 0.00 0.00 0.00 0.00 0.00 0.00 0.00 0.00 0.00 0.00 0.00 0.00 0.00 0.00 0.00 0.00 0.00 0.00 0.00 0.00
0.00 0.00 0.00 0.00 0.00 0.00 0.00 0.00 0.00 0.01 0.01 0.01 0.00 0.00 0.00 0.00 0.00 0.00 0.00 0.00 0.00 0.00 0.00 0.00 0.00 0.00 0.00 0.00 0.00 0.00 0.00 0.00 0.00 0.00 0.00 0.00 0.00 0.00 0.00 0.00 0.00 0.00 0.00
0.00 0.00 0.00 0.00 0.00 0.00 0.00 0.00 0.01 0.01 0.00 0.00 0.00 0.00 0.00 0.00 0.00 0.00 0.00 0.00 0.00 0.00 0.00 0.00 0.00 0.00 0.00 0.00 0.00 0.00 0.00 0.00 0.00 0.00 0.00 0.00 0.00 0.00 0.00 0.00 0.00 0.00 0.00
0.00 0.00 0.00 0.00 0.00 0.00 0.00 0.00 0.00 0.00 0.00 0.00 0.00 0.00 0.00 0.00 0.00 0.00 0.00 0.00 0.00 0.00 0.00 0.00 0.00 0.00 0.00 0.00 0.00 0.00 0.00 0.00 0.00 0.00 0.00 0.00 0.00 0.00 0.00 0.00 0.00 0.00 0.00
0.00 0.00 0.00 0.00 0.00 0.00 0.00 0.00 0.00 0.00 0.00 0.00 0.00 0.00 0.00 0.00 0.00 0.00 0.00 0.00 0.00 0.00 0.00 0.00 0.00 0.00 0.00 0.00 0.00 0.00 0.00 0.00 0.00 0.00 0.00 0.00 0.00 0.00 0.00 0.00 0.00 0.00 0.00
MSLP
1004.44 1004.23 1003.96 1003.72 1003.63 1003.57 1003.59 1003.58 1003.44 1003.70 1003.92 1004.06 1004.30 1004.56 1004.72 1004.74 1005.01 1005.44 1005.66 1005.99 1006.41 1006.78 1006.98 1007.11 1007.38 1007.87 1008.30 1008.78 1009.09 1009.40 1009.50 1009.45 1009.21 1008.86 1009.37 1010.35 1011.13 1011.44 1011.54 1012.06 1012.39 1012.56 1012.75
1004.73 1004.39 1004.13 1003.98 1003.73 1003.49 1003.29 1003.50 1003.80 1003.66 1003.77 1003.83 1003.76 1003.80 1003.98 1004.12 1004.16 1004.44 1004.98 1005.38 1005.60 1006.22 1006.60 1006.80 1006.71 1007.34 1007.65 1008.09 1008.35 1008.45 1008.63 1008.85 1008.87 1008.77 1009.31 1010.38 1010.82 1011.28 1011.49 1011.52 1012.01 1012.36 1012.32
1005.03 1004.72 1004.42 1004.20 1003.91 1003.49 1003.10 1002.98 1003.06 1003.12 1003.00 1002.98 1003.02 1003.13 1003.54 1003.96 1004.32 1003.99 1004.11 1004.26 1004.87 1005.58 1006.09 1006.16 1006.01 1006.34 1006.60 1006.91 1007.20 1007.29 1007.60 1007.83 1008.29 1008.67 1009.31 1010.14 1010.81 1011.25 1011.61 1011.62 1011.69 1012.12 1012.52
1006.05 1005.69 1005.28 1004.79 1004.43 1003.98 1003.56 1003.37 1003.22 1003.04 1002.83 1002.84 1003.07 1003.02 1003.19 1003.76 1003.91 1003.78 1003.56 1004.49 1003.93 1003.99 1004.43 1004.76 1004.92 1004.97 1005.21 1005.66 1006.19 1006.35 1006.98 1007.28 1007.93 1008.51 1008.98 1010.05 1010.85 1011.55 1011.65 1011.42 1011.54 1011.76 1011.99
1006.56 1006.33 1006.07 1005.67 1005.20 1004.87 1004.35 1004.08 1003.89 1003.65 1003.33 1003.25 1002.87 1003.11 1003.07 1003.25 1003.25 1003.47 1003.41 1003.73 1003.13 1003.18 1003.84 1003.67 1003.85 1004.03 1004.32 1004.57 1004.80 1005.30 1005.50 1006.49 1007.54 1008.29 1009.01 1010.10 1010.89 1011.45 1011.54 1011.44 1011.23 1011.43 1011.41
1007.24 1007.00 1006.52 1005.93 1005.79 1005.83 1005.51 1004.97 1004.46 1004.19 1004.06 1004.04 1003.51 1003.49 1003.43 1003.23 1003.04 1003.21 1003.20 1002.98 1003.17 1003.18 1003.18 1003.24 1003.46 1003.91 1004.20 1004.55 1004.62 1004.48 1004.98 1005.39 1007.19 1008.36 1009.28 1009.81 1010.35 1010.37 1011.12 1011.08 1010.99 1011.26 1011.28
1007.86 1007.60 1007.43 1006.42 1006.06 1006.23 1006.06 1005.71 1005.17 1004.82 1004.24 1003.89 1003.81 1003.80 1003.94 1003.69 1003.40 1003.42 1003.37 1003.15 1002.88 1002.81 1002.94 1003.20 1003.59 1003.94 1004.39 1005.10 1005.80 1006.81 1006.96 1007.57 1008.16 1008.53 1009.30 1009.60 1009.69 1010.08 1010.50 1010.76 1010.95 1010.97 1011.09
1008.44 1008.14 1007.92 1007.33 1006.86 1006.55 1006.69 1006.19 1005.81 1005.32 1004.84 1004.57 1004.30 1004.21 1003.87 1003.56 1004.20 1004.08 1003.62 1003.42 1003.29 1003.34 1003.37 1003.49 1003.77 1004.20 1004.55 1004.77 1005.30 1006.17 1006.62 1007.75 1008.22 1008.68 1008.89 1009.00 1009.26 1009.67 1009.48 1010.07 1010.52 1011.02 1011.72
1008.91 1008.80 1008.39 1008.25 1007.67 1007.00 1007.50 1007.02 1006.45 1005.84 1005.50 1005.35 1005.04 1004.84 1004.78 1004.95 1005.28 1004.63 1004.35 1004.21 1004.43 1004.57 1004.66 1004.73 1004.64 1004.95 1005.07 1005.30 1005.51 1006.05 1006.38 1007.16 1008.34 1008.71 1008.72 1009.40 1009.12 1009.12 1009.55 1010.10 1010.46 1011.23 1011.39
1009.68 1009.41 1009.12 1008.72 1008.29 1008.16 1007.98 1007.40 1007.19 1006.71 1006.51 1006.68 1006.52 1006.59 1006.57 1006.40 1006.40 1005.84 1005.43 1005.60 1005.66 1005.93 1005.98 1006.27 1006.57 1006.53 1006.71 1006.76 1006.76 1006.67 1007.26 1007.49 1008.21 1008.88 1008.90 1009.27 1009.19 1009.71 1009.91 1010.15 1010.15 1010.51 1010.97
1010.53 1010.20 1009.86 1009.64 1009.38 1009.15 1008.64 1008.38 1008.02 1007.85 1008.08 1008.15 1008.00 1007.87 1007.81 1007.67 1007.29 1007.04 1006.85 1006.68 1006.77 1006.76 1006.87 1007.15 1007.33 1007.38 1007.47 1007.49 1007.49 1007.54 1007.82 1008.14 1008.51 1008.66 1008.84 1008.96 1008.98 1009.57 1010.10 1010.22 1010.12 1010.33 1010.97
1011.22 1011.05 1010.97 1010.69 1010.32 1009.88 1009.52 1009.36 1009.23 1009.19 1009.38 1009.39 1009.17 1008.92 1008.56 1008.12 1007.83 1007.51 1007.44 1007.40 1007.29 1007.24 1007.31 1007.46 1007.62 1007.74 1007.82 1007.79 1007.74 1008.02 1008.14 1008.35 1008.54 1008.78 1009.01 1008.67 1009.06 1009.51 1009.82 1009.98 1010.17 1010.37 1010.89
1012.23 1012.10 1011.88 1011.75 1011.55 1011.40 1011.20 1010.89 1010.56 1010.43 1010.27 1010.12 1009.65 1009.35 1009.00 1008.79 1008.25 1008.21 1008.11 1007.92 1007.74 1007.55 1007.47 1007.44 1007.68 1007.79 1007.89 1007.89 1007.79 1008.01 1008.29 1008.39 1008.60 1008.96 1008.74 1008.84 1009.16 1009.05 1009.47 1010.08 1010.32 1010.59 1011.29
1012.96 1012.91 1012.85 1012.73 1012.57 1012.44 1012.33 1012.03 1011.79 1011.44 1011.19 1010.69 1009.96 1009.63 1009.37 1009.14 1008.82 1008.70 1008.58 1008.25 1007.97 1007.80 1007.86 1007.86 1007.84 1007.97 1007.99 1008.09 1008.21 1008.21 1008.20 1008.23 1008.37 1008.47 1008.43 1008.88 1009.16 1009.32 1009.56 1009.91 1010.12 1010.57 1011.45
1013.99 1014.07 1013.86 1013.53 1013.28 1012.92 1012.79 1012.75 1012.32 1012.05 1011.80 1011.26 1010.86 1010.47 1009.98 1009.61 1009.44 1009.25 1008.88 1008.42 1008.03 1007.90 1008.01 1007.93 1007.93 1007.96 1007.82 1007.87 1007.97 1008.00 1007.88 1007.92 1008.08 1008.18 1008.32 1008.61 1009.01 1009.27 1009.57 1009.88 1009.99 1010.47 1011.13
1014.57 1014.62 1014.52 1014.13 1013.79 1013.47 1013.11 1012.68 1012.37 1012.04 1011.72 1011.41 1011.04 1010.60 1010.11 1009.87 1009.45 1009.04 1008.67 1008.30 1007.97 1007.91 1008.04 1007.89 1007.78 1007.75 1007.69 1007.62 1007.64 1007.59 1007.64 1007.72 1007.73 1007.87 1008.19 1008.39 1008.64 1008.99 1009.41 1009.89 1009.89 1010.34 1010.80
1015.10 1014.93 1014.73 1014.44 1014.17 1013.78 1013.41 1012.80 1012.27 1011.83 1011.70 1011.37 1010.95 1010.57 1010.29 1010.00 1009.52 1009.00 1008.53 1008.10 1007.90 1008.14 1008.08 1007.90 1007.74 1007.74 1007.60 1007.47 1007.43 1007.47 1007.45 1007.43 1007.59 1007.77 1007.90 1008.17 1008.41 1008.86 1009.26 1009.58 1009.84 1010.45 1010.77
1015.33 1015.12 1014.66 1014.55 1014.36 1013.96 1013.59 1013.14 1012.71 1012.31 1011.66 1011.20 1010.95 1010.78 1010.46 1010.05 1009.50 1008.98 1008.59 1008.32 1008.28 1008.23 1008.05 1007.80 1007.63 1007.54 1007.42 1007.37 1007.33 1007.31 1007.39 1007.36 1007.52 1007.71 1007.76 1008.00 1008.29 1008.57 1009.13 1009.52 1010.09 1010.20 1010.32
1015.37 1015.20 1015.05 1014.76 1014.48 1014.14 1013.68 1013.26 1012.94 1012.21 1011.72 1011.14 1010.57 1010.32 1010.33 1010.08 1009.45 1009.14 1008.87 1008.57 1008.25 1007.93 1007.71 1007.57 1007.51 1007.46 1007.38 1007.34 1007.30 1007.35 1007.36 1007.35 1007.45 1007.55 1007.65 1007.91 1008.20 1008.54 1009.00 1009.52 1009.84 1009.98 1010.03
1016.00 1015.96 1015.67 1014.94 1014.28 1013.78 1013.44 1013.09 1012.78 1012.44 1011.91 1011.13 1010.52 1010.30 1010.33 1010.34 1009.58 1008.93 1008.68 1008.40 1008.12 1007.85 1007.60 1007.48 1007.43 1007.43 1007.39 1007.34 1007.32 1007.35 1007.34 1007.32 1007.32 1007.42 1007.58 1007.84 1008.16 1008.50 1008.91 1009.26 1009.58 1009.73 1009.99
1016.49 1016.11 1016.12 1015.26 1014.69 1014.18 1013.89 1013.49 1012.93 1012.52 1012.07 1011.61 1011.18 1010.88 1011.30 1010.83 1009.87 1009.13 1008.70 1008.32 1007.97 1007.64 1007.48 1007.41 1007.37 1007.40 1007.45 1007.40 1007.35 1007.28 1007.28 1007.30 1007.30 1007.40 1007.61 1007.82 1008.11 1008.48 1008.78 1009.13 1009.46 1009.70 1009.95
1016.98 1016.68 1016.24 1015.64 1015.17 1014.70 1014.45 1013.98 1013.36 1013.02 1012.35 1011.74 1011.46 1011.25 1010.91 1010.49 1009.86 1009.46 1008.92 1008.32 1007.88 1007.63 1007.51 1007.44 1007.40 1007.42 1007.42 1007.36 1007.29 1007.30 1007.28 1007.33 1007.36 1007.41 1007.57 1007.79 1008.06 1008.35 1008.66 1008.96 1009.31 1009.69 1010.00
1017.39 1017.10 1016.74 1016.44 1016.26 1015.71 1014.93 1014.51 1013.94 1013.43 1012.84 1012.52 1012.14 1011.60 1011.09 1010.55 1010.21 1009.74 1009.12 1008.46 1007.95 1007.71 1007.62 1007.58 1007.57 1007.56 1007.53 1007.46 1007.37 1007.37 1007.33 1007.33 1007.42 1007.48 1007.56 1007.75 1007.96 1008.18 1008.44 1008.81 1009.17 1009.57 1009.99
1018.28 1018.02 1017.83 1017.44 1016.94 1016.47 1016.00 1015.44 1014.87 1014.45 1014.04 1013.45 1012.90 1012.37 1011.75 1011.19 1010.59 1009.94 1009.18 1008.46 1008.18 1008.12 1008.06 1008.02 1007.99 1007.98 1007.76 1007.60 1007.46 1007.40 1007.39 1007.41 1007.42 1007.48 1007.52 1007.64 1007.82 1008.15 1008.33 1008.65 1009.02 1009.48 1009.92
1019.26 1018.96 1018.64 1018.30 1017.97 1017.56 1017.05 1016.54 1016.04 1015.51 1014.96 1014.44 1013.90 1013.31 1012.71 1012.02 1011.13 1010.39 1009.50 1009.09 1008.84 1008.70 1008.76 1008.75 1008.73 1008.56 1008.43 1008.24 1008.03 1007.87 1007.59 1007.49 1007.45 1007.46 1007.51 1007.62 1007.75 1007.98 1008.23 1008.53 1008.90 1009.39 1009.84
1020.11 1019.88 1019.60 1019.25 1018.91 1018.53 1018.08 1017.58 1017.06 1016.59 1016.05 1015.49 1014.99 1014.42 1013.82 1013.19 1012.49 1011.81 1011.23 1010.66 1010.04 1009.70 1009.59 1009.52 1009.49 1009.34 1009.04 1008.62 1008.52 1008.31 1007.85 1007.51 1007.44 1007.48 1007.49 1007.57 1007.74 1007.91 1008.15 1008.45 1008.83 1009.24 1009.69
Thickness
5728 5727 5726 5725 5722 5720 5715 5711 5709 5704 5699 5694 5690 5688 5684 5681 5677 5670 5667 5662 5654 5648 5644 5639 5634 5627 5620 5613 5606 5599 5596 5592 5587 5587 5581 5568 5557 5550 5546 5539 5530 5525 5519
5714 5714 5712 5709 5707 5704 5702 5697 5692 5689 5685 5683 5682 5680 5676 5673 5670 5665 5659 5653 5648 5639 5632 5628 5627 5617 5612 5606 5600 5595 5589 5583 5578 5574 5567 5553 5546 5539 5533 5529 5520 5511 5507
5698 5697 5694 5691 5690 5690 5690 5687 5684 5680 5679 5678 5675 5672 5665 5659 5655 5656 5654 5648 5639 5630 5621 5618 5619 5613 5609 5603 5596 5591 5584 5580 5573 5563 5553 5543 5533 5525 5517 5512 5507 5499 5490
5672 5672 5671 5671 5670 5671 5671 5670 5668 5668 5667 5665 5662 5658 5654 5648 5645 5644 5642 5631 5633 5629 5621 5618 5615 5611 5606 5599 5590 5585 5575 5568 5558 5550 5543 5528 5517 5506 5501 5497 5492 5487 5483
5652 5650 5648 5649 5649 5649 5650 5649 5649 5649 5651 5650 5652 5646 5643 5641 5638 5633 5629 5623 5615 5615 5612 5614 5610 5605 5599 5593 5586 5580 5573 5559 5545 5536 5526 5508 5496 5488 5484 5482 5482 5477 5474
5633 5630 5631 5632 5630 5625 5626 5628 5631 5632 5631 5629 5629 5631 5628 5628 5626 5618 5615 5615 5612 5610 5608 5603 5597 5589 5583 5573 5568 5565 5558 5552 5530 5520 5506 5495 5490 5486 5475 5473 5472 5465 5460
5613 5611 5609 5613 5614 5609 5610 5611 5613 5614 5617 5618 5616 5614 5610 5610 5606 5602 5598 5598 5598 5597 5592 5586 5575 5570 5563 5552 5541 5528 5523 5513 5504 5501 5489 5483 5481 5475 5468 5461 5456 5454 5449
5594 5592 5590 5592 5592 5593 5590 5593 5595 5598 5600 5600 5600 5598 5599 5597 5584 5582 5580 5579 5576 5572 5568 5563 5556 5550 5543 5537 5528 5516 5509 5497 5489 5482 5476 5472 5469 5462 5462 5454 5446 5440 5429
5575 5573 5572 5570 5573 5577 5569 5573 5577 5581 5581 5580 5579 5578 5574 5568 5559 5561 5560 5558 5550 5543 5538 5533 5529 5523 5516 5511 5504 5493 5487 5479 5466 5462 5458 5449 5451 5448 5442 5436 5432 5423 5419
5556 5555 5554 5554 5555 5554 5554 5557 5556 5557 5557 5551 5548 5543 5539 5538 5534 5535 5532 5524 5518 5510 5505 5497 5488 5485 5476 5472 5469 5466 5458 5452 5444 5435 5434 5430 5431 5426 5422 5421 5420 5417 5412
5537 5537 5537 5535 5534 5533 5536 5535 5535 5533 5527 5521 5518 5516 5513 5508 5506 5502 5498 5494 5485 5477 5470 5461 5454 5448 5443 5438 5435 5432 5427 5421 5417 5414 5410 5410 5413 5409 5403 5404 5405 5403 5396
5519 5517 5514 5513 5514 5515 5515 5513 5510 5506 5498 5492 5489 5486 5483 5482 5477 5473 5467 5460 5454 5446 5437 5430 5422 5416 5412 5411 5412 5407 5403 5399 5398 5394 5393 5398 5395 5391 5392 5392 5391 5390 5386
5497 5495 5494 5491 5489 5487 5483 5481 5480 5476 5471 5466 5464 5462 5458 5451 5447 5438 5430 5423 5418 5414 5408 5403 5396 5394 5392 5391 5391 5389 5384 5384 5382 5378 5380 5381 5378 5383 5382 5378 5377 5375 5372
5478 5475 5471 5467 5464 5460 5455 5451 5447 5445 5442 5441 5442 5436 5430 5421 5414 5406 5400 5396 5392 5389 5384 5382 5380 5377 5377 5375 5374 5373 5373 5372 5371 5372 5375 5370 5367 5367 5368 5369 5370 5368 5362
5455 5448 5445 5443 5440 5437 5432 5426 5423 5419 5413 5409 5403 5399 5396 5392 5386 5381 5379 5378 5377 5374 5369 5367 5367 5366 5366 5365 5363 5362 5363 5363 5363 5363 5362 5361 5359 5357 5357 5357 5361 5360 5356
5436 5429 5424 5422 5419 5415 5409 5404 5398 5391 5386 5381 5378 5376 5375 5373 5371 5369 5368 5367 5365 5361 5357 5357 5356 5355 5354 5354 5353 5354 5353 5352 5353 5353 5351 5351 5351 5349 5347 5345 5351 5352 5351
5415 5410 5405 5400 5394 5388 5381 5379 5375 5370 5368 5366 5364 5363 5361 5358 5358 5358 5358 5357 5354 5348 5347 5346 5344 5342 5342 5342 5341 5342 5344 5343 5342 5341 5342 5342 5340 5340 5338 5339 5342 5341 5343
5393 5386 5383 5375 5368 5364 5361 5359 5357 5354 5352 5353 5351 5347 5345 5344 5345 5345 5345 5343 5342 5338 5338 5337 5336 5335 5334 5333 5332 5332 5332 5332 5331 5331 5334 5333 5333 5334 5333 5334 5332 5338 5343
5372 5366 5360 5355 5351 5347 5345 5344 5341 5342 5340 5340 5340 5337 5333 5331 5332 5331 5330 5330 5330 5331 5330 5329 5328 5327 5326 5324 5324 5324 5324 5324 5325 5326 5328 5327 5328 5329 5329 5329 5331 5335 5340
5348 5340 5336 5337 5338 5336 5333 5330 5327 5324 5323 5326 5327 5324 5318 5313 5318 5321 5320 5319 5319 5320 5320 5320 5319 5318 5318 5317 5317 5317 5318 5319 5321 5322 5322 5322 5324 5326 5326 5327 5328 5333 5335
5328 5325 5318 5320 5319 5317 5312 5309 5308 5307 5305 5304 5303 5302 5293 5295 5300 5305 5307 5308 5309 5311 5311 5310 5310 5310 5310 5310 5312 5313 5313 5315 5317 5317 5318 5319 5321 5322 5324 5324 5326 5329 5332
5311 5306 5304 5302 5298 5296 5291 5289 5288 5283 5284 5285 5283 5280 5279 5282 5286 5287 5291 5295 5298 5300 5301 5302 5302 5302 5303 5304 5307 5309 5311 5311 5312 5313 5314 5316 5317 5319 5321 5322 5323 5325 5328
5294 5288 5283 5278 5272 5269 5269 5264 5262 5259 5258 5256 5255 5257 5259 5262 5264 5268 5274 5279 5285 5288 5290 5291 5292 5293 5294 5296 5299 5302 5305 5307 5308 5310 5311 5312 5314 5316 5318 5320 5321 5322 5323
5271 5265 5258 5253 5248 5242 5237 5233 5229 5225 5222 5223 5224 5227 5232 5237 5242 5249 5257 5266 5270 5273 5275 5277 5279 5280 5284 5287 5290 5293 5296 5300 5303 5305 5308 5310 5311 5312 5314 5316 5318 5318 5319
5248 5240 5233 5225 5217 5209 5203 5198 5193 5190 5189 5189 5191 5195 5201 5209 5218 5227 5238 5245 5250 5255 5258 5261 5263 5266 5270 5273 5277 5281 5287 5291 5296 5300 5303 5306 5308 5309 5310 5311 5313 5314 5315
5224 5214 5204 5195 5186 5178 5171 5166 5162 5159 5158 5158 5160 5164 5170 5177 5187 5197 5207 5215 5226 5233 5239 5244 5248 5252 5257 5263 5267 5271 5278 5284 5289 5294 5298 5301 5303 5305 5306 5306 5307 5309 5310